Change the Weather History Date:

Saturday, October 8, 2011

  Actual Average Record
Temperature  
Mean Temperature 73 °F 78 °F  
Max Temperature 88 °F 92 °F 109 °F (1996)
Min Temperature 58 °F 65 °F 46 °F (1941)
Degree Days  
Heating Degree Days 0 0  
Month to date heating degree days 0 0  
Since 1 July heating degree days 0 0  
Cooling Degree Days 8 13  
Month to date cooling degree days 93 117  
Year to date cooling degree days 3814 3843  
Growing Degree Days 23 (Base 50)    
Moisture  
Dew Point 36 °F    
Average Humidity 31    
Maximum Humidity 48    
Minimum Humidity 13    
Precipitation  
Precipitation 0.00 in 0.01 in 0.22 in (1945)
Month to date precipitation T 0.07  
Year to date precipitation 2.39 3.96  
Since 1 July precipitation 0.92 1.02  
Snow  
Snow 0.00 in - - ()
Month to date snowfall 0.0  
Year to date snowfall 0.0  
Since 1 July snowfall 0.0  
Snow Depth 0.00 in    
Sea Level Pressure  
Sea Level Pressure 29.97 in    
Wind  
Wind Speed 5 mph (NW)    
Max Wind Speed 14 mph    
Max Gust Speed 16 mph    
Visibility 10 miles    
Events      
T = Trace of Precipitation, MM = Missing Value Source: NWS Daily Summary

Daily Weather History Graph

Daily Weather History Graph

Search for Another Location

Airport or City:

Trip Planner

Search our weather history database for the weather conditions in past years. The results will help you decide how hot, cold, wet, or windy it might be!

Date:

Astronomy

Oct. 08, 2011 Rise Set
Actual Time 6:45 AM PDT 6:21 PM PDT
Civil Twilight 6:20 AM PDT 6:46 PM PDT
Nautical Twilight 5:51 AM PDT 7:15 PM PDT
Astronomical Twilight 5:22 AM PDT 7:43 PM PDT
Moon 4:27 PM PDT (10/8) 3:44 AM PDT (10/8)
Length of Visible Light 12h 25m
Length of Day
11h 35m
Waxing Gibbous, 90% of the Moon is Illuminated
Oct 8
Waxing Gibbous
Oct 11
Full
Oct 19
Last Quarter
Oct 26
New
Nov 2
First Quarter

Hourly Weather History & Observations

Time (PDT) Temp. Dew Point Humidity Pressure Visibility Wind Dir Wind Speed Gust Speed Precip Events Conditions
12:53 AM 64.0 °F 44.1 °F 48% 30.00 in 10.0 mi NW 9.2 mph - N/A   Clear
1:53 AM 64.0 °F 43.0 °F 46% 30.00 in 10.0 mi NNW 6.9 mph - N/A   Clear
2:53 AM 63.0 °F 43.0 °F 48% 30.00 in 10.0 mi NNW 9.2 mph - N/A   Clear
3:53 AM 62.1 °F 42.1 °F 48% 29.99 in 10.0 mi NNW 6.9 mph - N/A   Clear
4:53 AM 62.1 °F 41.0 °F 46% 29.99 in 10.0 mi NW 3.5 mph - N/A   Clear
5:53 AM 61.0 °F 39.9 °F 46% 30.00 in 10.0 mi NNW 5.8 mph - N/A   Clear
6:53 AM 59.0 °F 37.9 °F 46% 30.01 in 10.0 mi NNW 4.6 mph - N/A   Clear
7:53 AM 63.0 °F 37.9 °F 40% 30.02 in 10.0 mi NNW 8.1 mph - N/A   Clear
8:53 AM 68.0 °F 44.1 °F 42% 30.02 in 10.0 mi Calm Calm - N/A   Clear
9:53 AM 73.9 °F 37.0 °F 26% 30.02 in 10.0 mi SSW 3.5 mph - N/A   Clear
10:53 AM 80.1 °F 32.0 °F 17% 30.01 in 10.0 mi Calm Calm - N/A   Clear
11:53 AM 82.4 °F 32.0 °F 16% 29.99 in 10.0 mi Variable 5.8 mph - N/A   Clear
12:53 PM 84.0 °F 32.0 °F 15% 29.96 in 10.0 mi South 5.8 mph - N/A   Clear
1:53 PM 84.9 °F 32.0 °F 15% 29.91 in 10.0 mi Variable 4.6 mph - N/A   Clear
2:53 PM 86.0 °F 32.0 °F 14% 29.90 in 10.0 mi Calm Calm - N/A   Clear
3:53 PM 87.1 °F 32.0 °F 14% 29.88 in 10.0 mi Variable 4.6 mph - N/A   Clear
4:53 PM 86.0 °F 30.9 °F 14% 29.88 in 10.0 mi Calm Calm - N/A   Clear
5:53 PM 84.0 °F 30.0 °F 14% 29.88 in 10.0 mi Calm Calm - N/A   Clear
6:53 PM 81.0 °F 30.0 °F 16% 29.89 in 10.0 mi North 8.1 mph - N/A   Clear
7:53 PM 80.1 °F 30.0 °F 16% 29.93 in 10.0 mi West 3.5 mph - N/A   Clear
8:53 PM 78.1 °F 28.9 °F 17% 29.96 in 10.0 mi NNW 5.8 mph - N/A   Clear
9:53 PM 73.9 °F 34.0 °F 23% 29.97 in 10.0 mi West 5.8 mph - N/A   Clear
11:53 PM 70.0 °F 34.0 °F 27% 29.99 in 10.0 mi West 3.5 mph - N/A   Clear